Regional Weather Roundup
Issued by NWS Grand Forks, ND

Home | Current Version | Previous Version | Text Only | Print | Product List | Glossary Off
Versions: 1 2 3 4 5 6 7 8 9 10 11 12 13 14 15 16 17 18 19 20 21 22 23 24 25 26 27 28 29 30 31 32 33 34 35 36 37 38 39 40 41 42 43 44 45 46 47 48 49 50

000
ASUS43 KFGF 231031
RWRFGF
PRAIRIE TO PINES  WEATHER ROUNDUP
NATIONAL WEATHER SERVICE EASTERN NORTH DAKOTA/GRAND FORKS ND
500 AM CDT SUN APR 23 2017

 **SATELLITE DATA USED TO AUGMENT SKY COVER AT AUTOMATED STATIONS**
 *****  WEATHER ACROSS EASTERN NORTH DAKOTA  *****

CITY           SKY/WX    TMP DP  RH WIND       PRES   REMARKS
GRAND FORKS    CLOUDY    32  22  66 NE14      30.24S WCI  22
GRAND FRKS AFB CLOUDY    30  19  64 NE10      30.24R WCI  21
DEVILS LAKE    CLOUDY    28  18  66 NE18G26   30.20F WCI  15
FARGO          CLOUDY    34  32  92 N14       30.17S WCI  25
WAHPETON ARPT  CLOUDY    37  34  87 N13G20    30.12F
$$

 ***** WEATHER ACROSS CENTRAL AND WESTERN NORTH DAKOTA  *****

CITY           SKY/WX    TMP DP  RH WIND       PRES   REMARKS
BISMARCK       CLOUDY    35  31  85 E20       30.08F WCI  24
MINOT          LGT SNOW  30  22  72 E21G29    30.15F WCI  17
JAMESTOWN      MIX PCPN  30  26  85 NE16      30.14F WCI  19
MINOT AFB      MIX PCPN  30  23  74 E18       30.16R WCI  18
GARRISON         N/A     31  28  89 E20G26    30.11S WCI  19
WILLISTON      CLOUDY    35  27  72 E20G26    30.09S WCI  24
DICKINSON      CLOUDY    32  30  92 E20G25    29.98F WCI  20
HETTINGER      FOG       34  33  96 E21G26    29.96F VSB 1   WCI  22
$$

 *****  OTHER AIRPORT OBSERVATIONS IN OUR AREA  *****

CITY           SKY/WX    TMP DP  RH WIND       PRES   REMARKS
WALHALLA       NOT AVBL
GRAFTON AIRPOR FAIR      28  21  74 NE13      30.27F WCI  18
VALLEY CITY AR LGT RAIN  28  28 100 NE21      30.17F WCI  15
CANDO          NOT AVBL
CAVALIER APRT  FAIR      28  21  74 NE8       30.27F WCI  20
GWINNER        CLOUDY    34  32  93 MISG      30.12F
SHEYENNE NWR     N/A     32  29  90 NE13      29.95S WCI  22
ROLLA          CLOUDY    27  12  54 E16       30.21F WCI  14
 ***** THE ABOVE OBSERVATIONS ARE NON NWS ARE NOT QUALITY
       CONTROLLED AND MAY MIS-REPORT RAIN FOR SNOW...
$$

  *****  WEATHER ACROSS NORTHERN MINNESOTA  *****

CITY           SKY/WX    TMP DP  RH WIND       PRES   REMARKS
FLAG ISLAND    FAIR      28  14  54 NE14      30.26S WCI  17
WARROAD        FAIR      30  19  64 N13G18    30.27R WCI  20
ROSEAU         FAIR      28  21  74 N9        30.27R WCI  20
HALLOCK        MOCLDY    28  19  69 NE8       30.27S WCI  20
THF RVR FALLS  CLOUDY    30  24  78 NE16      30.22F WCI  19
BAUDETTE       FAIR      30  20  66 NE10      30.24R WCI  21
WASKISH        MOCLDY    30  28  93 NE7       30.22R WCI  23
CROOKSTON      CLOUDY    32  25  74 NE13      30.22S WCI  22
STEPHEN NDAWN    N/A     28  19  69 NE14        N/A  WCI  17
GREENBUSH NDAW   N/A     28  21  74 NE8         N/A  WCI  20
$$
  *****  WEATHER ACROSS CENTRAL AND WEST MINNESOTA  *****

CITY           SKY/WX    TMP DP  RH WIND       PRES   REMARKS
FOSSTON        CLOUDY    30  28  93 NE10      30.19S WCI  21
BEMIDJI        CLOUDY    32  25  76 NE6       30.18S
PARK RAPIDS    FLURRIES  35  30  82 N14       30.15R
ELBOW LAKE     PTSUNNY   42  37  84 E13       30.11R
WADENA         CLOUDY    37  34  87 NE14G21   30.12F
DETROIT LAKES  MOCLDY    36  32  87 NE14G22   30.16S
MOORHEAD       DRIZZLE   34  32  93 N10       30.18S
FERGUS FALLS   CLOUDY    41  36  81 NE14      30.12S
MORRIS MN      FAIR      37  37 100 N8        30.08R
STAPLES        MIX PCPN  39  36  87 N9        30.12R
$$
  *****  WEATHER ELSEWHERE ACROSS MINNESOTA  *****

CITY           SKY/WX    TMP DP  RH WIND       PRES   REMARKS
DULUTH         LGT SNOW  34  33  96 N8        30.14R FOG
INTRNTL FALLS  MOCLDY    30  20  66 NE10      30.21F WCI  21
ELY            CLOUDY    28  27  93 N7        30.17R WCI  21
CLOQUET        LGT RAIN  37  34  87 N7        30.14R
WHEATON        FAIR      37  36  93 N6        30.13S
BRAINERD       CLOUDY    40  35  83 NE13      30.12S
HIBBING        CLOUDY    30  28  92 N9        30.16S WCI  22
ALEXANDRIA     CLOUDY    42  37  82 NE10      30.09S
SAINT CLOUD    FAIR      45  39  79 N8        30.08R
MINNEAPOLIS    FAIR      51  35  54 SW9       30.05F
$$

  *****  WEATHER ACROSS SOUTH DAKOTA  *****

CITY           SKY/WX    TMP DP  RH WIND       PRES   REMARKS
SIOUX FALLS    FAIR      50  35  56 SW8       30.09F
BROOKINGS      FAIR      45  35  68 S7        30.07F
WATERTOWN      FAIR      44  36  73 CALM      30.06F
HURON          FAIR      45  37  73 S13       30.03F
SISSETON         N/A     38  36  92 N16       30.11S
ABERDEEN       CLOUDY    36  31  82 NE20G28   30.08F
MITCHELL       FAIR      49  36  61 S12       30.06F
PIERRE         FAIR      47  31  53 SW10      29.97F
MOBRIDGE       FAIR      36  29  75 E25G38    29.98F
RAPID CITY     FAIR      45  32  60 S10       29.93F
$$

  *****  SOME WEATHER IN NEARBY STATES *****

CITY           SKY/WX    TMP DP  RH WIND       PRES   REMARKS
GLASGOW MT     CLOUDY    37  34  89 E24       29.92F
GREAT FALLS MT FAIR      40  37  89 NW7       29.82F
CHEYENNE WY    FAIR      34  29  82 CALM      30.04F
SCOTTSBLUFF NE FAIR      46  31  55 S8        30.02F
OMAHA NE       FAIR      43  35  73 CALM      30.17S
DES MOINES IA  FAIR      47  29  49 SW3       30.16F
DAVENPORT IA     N/A     37  31  78 NW6       30.16R
CHICAGO IL     FAIR      39  29  67 CALM      30.13R
EAU CLAIRE WI  FAIR      45  38  76 S5        30.05S
LA CROSSE WI   FAIR      47  41  80 SE9       30.10S
$$

  *****  SOME NATIONAL WEATHER *****

CITY           SKY/WX    TMP DP  RH WIND       PRES   REMARKS
LA GUARDIA NY  MOCLDY    48  35  60 N7        30.07R
RALEIGH NC     LGT RAIN  55  53  93 NE7       29.98R
ATLANTA GA     CLOUDY    62  59  90 E13       29.83S
NEW ORLEANS LA FAIR      65  60  84 N9        29.88S
OKLAHOMA CITY  FAIR      44  39  82 N8        30.16S
ALBUQUERQUE NM FAIR      48  29  47 E15       30.22S
SALT LAKE CITY MOCLDY    52  34  50 E9        29.90F
LOS ANGELES CA FAIR      59  55  87 W7        29.83F
BOISE ID       FAIR      56  39  53 SE10      29.81F
SEATTLE WA     FAIR      47  44  90 S3        29.95F
$$

*** WEATHER ACROSS MANITOBA...SASKATCHEWAN AND ONTARIO ***
                ***ONTARIO***

CITY           SKY/WX    TMP DP  RH WIND       PRES   REMARKS
GERALDTON      LGT SNOW  19  16  86 N5        30.14R WCI  13
THUNDER BAY    CLOUDY    32  25  74 N5        30.18R
SIOUX LOOKOUT  CLEAR     19  12  73 N3        30.24R
TORONTO        PTCLDY    37  28  70 NW3       30.08S
BIG TROUT LK   CLEAR      3  -2  78 NW6       30.26R WCI  -8
PICKLE LAKE    NOT AVBL
DRYDEN         CLEAR     21  14  73 N5        30.24R WCI  15
KENORA         PTCLDY    23  10  58 N6        30.26R WCI  16
$$
                *** MANITOBA***

CITY           SKY/WX    TMP DP  RH WIND       PRES   REMARKS
BRANDON        MOCLDY    23  18  80 E6        30.26F WCI  16
DAUPHIN        PTCLDY    23  21  93 VRB2      30.27F
ISLAND LAKE    PTCLDY     7   3  85 CALM      30.32F
PILOT MOUND      N/A     27  14  59 E14         N/A  WCI  15
THE PAS        CLEAR     18   9  68 NE3       30.33F
THOMPSON       NOT AVBL
WINNIPEG       MOCLDY    25  21  86 E2        30.30F
LYNN LAKE      CLEAR     -6  -9  84 NW5       30.30F WCI -17
CHURCHILL      FLURRIES  -2  -6  84 NW14      30.32F WCI -21
GILLAM         CLEAR     -8 -11  84 W2        30.34F
$$
                ***SASKATCHEWAN***

CITY           SKY/WX    TMP DP  RH WIND       PRES   REMARKS
ESTEVAN        FLURRIES  30  28  93 E17G23    30.14F WCI  18
KINDERSLEY     CLOUDY    32  28  86 E21G29    30.02F WCI  20
LLOYDMINSTER   CLOUDY    30  21  69 E10       30.09F WCI  21
PRINCE ALBERT  MOCLDY    23  18  80 E9        30.21F WCI  13
REGINA         CLOUDY    34  27  75 SE16      30.12F WCI  23
YORKTON        CLOUDY    28  23  80 SE7       30.20F WCI  21
N. BATTLEFORD  CLOUDY    30  23  74 E9        30.14F WCI  22
LA RONGE       CLEAR     14   9  79 NE6       30.28F WCI   5
SASKATOON      CLOUDY    32  21  64 E14       30.14F WCI  22
SWIFT CURRENT  CLOUDY    36  32  87 SE23G31   29.95F
$$
NOTE: THESE ARE AUTOMATED STATIONS WITH LIMITED QUALITY CONTROL
      "FAIR" INDICATES FEW OR NO CLOUDS BELOW 12,000 FEET WITH NO
      SIGNIFICANT WEATHER AND/OR OBSTRUCTIONS TO VISIBILITY.
      SKY/WX - SKY CONDITION AND SIGNIFICANT WEATHER.
      TMP - AIR TEMPERATURE.    DP   - DEWPOINT TEMPERATURE.
      RH  - RELATIVE HUMIDITY.  PRES - PRESSURE.
      HX  - HEAT INDEX.         WCI  - WIND CHILL INDEX.
$




USA.gov is the U.S. government's official web portal to all federal, state and local government web resources and services.